[[{"header":{"parameterUnit":"m.s-1","parameterCategory":1,"la1":30.2991,"la2":30.254,"lo1":-89.0895,"lo2":-89.0444,"dy":0.0017,"dx":0.0017,"nx":28,"ny":28,"refTime":"2024-04-03T21:00:00:Z","depth":0,"parameterNumber":2,"parameterNumberName":"U-component_of_WINDS"},"data":[0,0,0,0,0,0,0,0,0,0,0,0,0,0,0,0,0,0,0,0,0,0,0,0,0,0,0,0,0,0,0,0,0,0,0,0,0,0,0,0,0,0,0,0,0,0,0,0,0,0,0,0,0,0,0,0,0,0,5.2574,5.2576,0,5.2723,5.2724,5.2726,5.2689,5.2686,5.2683,5.268,5.2833,5.2839,5.2846,0,0,0,0,0,0,0,0,0,0,0,0,0,5.2259,5.2265,5.2574,5.2576,5.2578,5.2722,5.2724,5.2726,5.2689,5.2686,5.2682,5.2679,5.283,5.2838,5.2846,0,0,0,0,0,0,0,0,0,0,0,0,0,5.2401,5.2267,5.2574,5.2577,5.2578,5.2722,5.2725,5.2727,5.269,5.2686,5.2681,5.2677,5.2828,5.2838,5.2848,5.2997,0,0,5.2879,5.2883,0,0,0,0,0,0,0,0,5.2393,5.2412,5.2574,5.2577,5.2579,5.2683,5.2669,5.2818,5.2691,5.2648,5.268,5.2675,5.2786,5.28,5.2837,5.3004,5.3011,5.2879,5.2886,5.289,5.2893,0,0,0,0,0,0,0,5.2383,5.2406,5.2633,5.2577,5.258,5.2571,5.2586,5.2697,5.274,5.2651,5.2649,5.2667,5.2787,5.2827,5.284,5.3013,5.2879,5.2888,5.2894,5.2898,5.3313,5.3317,0,0,0,0,0,0,5.2371,5.2398,5.2628,5.2637,5.2473,5.258,5.2597,5.2654,5.2738,5.2747,5.2671,5.2665,5.2812,5.2829,5.2846,5.3027,5.289,5.2899,5.2905,5.3308,5.3314,5.3319,0,0,0,0,0,0,5.2365,5.2392,5.2622,5.2517,5.2546,5.259,5.2654,5.2659,5.27,5.2753,5.276,5.2704,5.2809,5.2831,5.296,5.3032,5.2904,5.2913,5.3302,5.331,5.3316,5.3391,0,0,0,0,0,0,5.2356,5.239,5.2447,5.2519,5.2551,5.2734,5.2659,5.2665,5.2717,5.2711,5.2786,5.2795,5.2808,5.2945,5.297,5.3044,5.2921,5.3296,5.3305,5.3314,5.3383,5.34,5.3415,0,0,0,0,0,5.2345,5.2462,5.245,5.2478,5.2623,5.2738,5.2757,5.2769,5.2723,5.2781,5.2816,5.2792,5.302,5.2959,5.2987,5.3064,5.3291,5.3303,5.3313,5.3375,5.3397,5.3415,0,0,0,0,0,0,5.2397,5.2471,5.2459,5.2603,5.2665,5.2732,5.2805,5.2792,5.2868,5.2859,5.2871,5.2889,5.302,5.3055,5.2985,5.3214,5.3149,5.3166,5.3187,5.3208,5.3224,5.3212,5.293,0,0,0,0,0,5.2425,5.2512,5.2572,5.2693,5.2725,5.276,5.281,5.2815,5.2879,5.2905,5.2949,5.3013,5.3099,5.3155,5.3237,5.3388,5.3404,5.3455,5.3471,5.3484,5.3499,5.3582,5.3606,5.3355,5.3355,5.3355,0,0,5.2484,5.2536,5.259,5.2705,5.2754,5.2844,5.2782,5.288,5.2947,5.292,5.3045,5.3079,5.3151,5.3292,5.3356,5.3325,5.3572,5.3499,5.3509,5.3516,5.3596,5.362,5.3641,5.3363,5.3362,5.336,0,0,5.2638,5.2686,5.2792,5.2842,5.2917,5.294,5.2965,5.3035,5.3058,5.3183,5.3165,5.3245,5.3393,5.3445,5.3491,5.3668,5.3649,5.3694,5.378,5.3861,5.3881,5.3898,5.3961,5.3984,5.3708,5.3709,5.3709,0,5.2702,5.2837,5.2849,5.2949,5.3,5.2981,5.3089,5.3138,5.3235,5.3271,5.3235,5.3421,5.3468,5.3622,5.3665,5.3702,5.3733,5.3685,5.3877,5.3894,5.3911,5.3972,5.3995,5.3714,5.3713,5.3712,5.3712,0,5.2913,5.3007,5.3084,5.3179,5.324,5.3343,5.3371,5.3431,5.3431,5.3458,5.3587,5.3643,5.3736,5.3773,5.3773,5.3927,5.3906,5.3873,5.3808,5.394,5.3997,5.402,5.3721,5.3719,5.3717,5.3716,0,0,5.3103,5.3204,5.3232,5.3276,5.3357,5.343,5.3534,5.3626,5.3677,5.3746,5.3833,5.3959,5.393,5.3983,5.3989,5.406,5.4197,5.4019,5.4021,5.4051,5.4371,5.4395,5.4422,5.4186,5.4191,5.4194,5.4365,0,5.3264,5.3446,5.346,5.3624,5.3712,5.3696,5.3786,5.3846,5.3874,5.3953,5.3984,5.4074,5.4028,5.406,5.413,5.4166,5.4262,5.4154,5.4268,5.4272,5.425,5.4451,5.4477,5.4635,5.4388,5.4392,5.4394,0,5.3476,5.3552,5.3725,5.3795,5.3833,5.3913,5.3999,5.4075,5.4143,5.4159,5.4218,5.4215,5.4323,5.4254,5.4402,5.4328,5.4376,5.4401,5.4408,5.4418,5.4341,5.4468,5.4686,5.471,5.4429,5.4427,5.4424,0,5.3598,5.3743,5.3865,5.3903,5.3988,5.4046,5.4084,5.4148,5.4203,5.4278,5.4314,5.4401,5.4449,5.4517,5.4538,5.4486,5.4686,5.4618,5.4702,5.4702,5.4744,5.4741,5.4974,5.4776,5.4775,5.4775,5.4774,0,5.3777,5.3883,5.3921,5.3997,5.4116,5.4132,5.425,5.4285,5.4342,5.4425,5.4416,5.4494,5.4517,5.4599,5.4616,5.4736,5.4758,5.4774,5.4777,5.4775,5.4773,5.4806,5.4796,5.4781,5.478,5.4778,5.4777,0,5.3933,5.3962,5.4095,5.4165,5.4185,5.427,5.4331,5.4404,5.4431,5.4536,5.4561,5.4604,5.47,5.4728,5.4844,5.4855,5.4997,5.499,5.4974,5.4974,5.5056,5.5048,5.5318,5.5354,5.5132,5.5134,5.5136,0,5.4045,5.4126,5.4206,5.4261,5.4301,5.4389,5.4445,5.4465,5.4524,5.4609,5.4672,5.4767,5.4844,5.4998,5.504,5.5129,5.5124,5.5213,5.5138,5.5133,5.5126,5.5121,5.513,5.5227,5.5229,5.5231,5.5233,0,5.4241,5.4252,5.4333,5.442,5.4488,5.4557,5.4624,5.4669,5.4698,5.4765,5.4863,5.4923,5.5042,5.5136,5.5227,5.5266,5.5255,5.5256,5.528,5.5278,5.5266,5.5274,5.5013,5.525,5.5248,5.5247,5.5246,5.5245,5.4378,5.4451,5.4518,5.461,5.4662,5.4725,5.4797,5.4834,5.4917,5.5014,5.5021,5.5128,5.5196,5.5316,5.536,5.5445,5.5419,5.5454,5.5462,5.5471,5.5478,5.5253,5.5461,5.5461,5.546,5.546,5.546,0,5.4574,5.4617,5.4701,5.4795,5.4867,5.4851,5.4924,5.4985,5.508,5.5144,5.522,5.5334,5.5426,5.5476,5.5568,5.5626,5.5623,5.565,5.5646,5.5655,5.5495,5.5465,5.5651,5.565,5.565,5.565,5.565,5.565,5.4685,5.4807,5.4826,5.4974,5.5016,5.5121,5.5164,5.5223,5.5274,5.5402,5.5478,5.551,5.5569,5.5666,5.575,5.5763,5.5797,5.5827,5.5836,5.5686,5.5666,5.5648,5.5619,5.5834,5.5834,5.5989,5.599,5.5991]},{"header":{"parameterUnit":"m.s-1","parameterCategory":1,"la1":30.2991,"la2":30.254,"lo1":-89.0895,"lo2":-89.0444,"dy":0.0017,"dx":0.0017,"nx":28,"ny":28,"refTime":"2024-04-03T21:00:00:Z","depth":0,"parameterNumber":3,"parameterNumberName":"V-component_of_WINDS"},"data":[0,0,0,0,0,0,0,0,0,0,0,0,0,0,0,0,0,0,0,0,0,0,0,0,0,0,0,0,0,0,0,0,0,0,0,0,0,0,0,0,0,0,0,0,0,0,0,0,0,0,0,0,0,0,0,0,0,0,-1.2031,-1.2032,0,-1.2083,-1.2084,-1.2084,-1.2131,-1.2132,-1.2132,-1.2133,-1.2183,-1.2184,-1.2185,0,0,0,0,0,0,0,0,0,0,0,0,0,-1.1969,-1.197,-1.2031,-1.2032,-1.2032,-1.2083,-1.2084,-1.2084,-1.2131,-1.2132,-1.2132,-1.2133,-1.2183,-1.2184,-1.2185,0,0,0,0,0,0,0,0,0,0,0,0,0,-1.2006,-1.197,-1.2031,-1.2062,-1.2065,-1.2083,-1.2084,-1.2085,-1.2131,-1.2132,-1.2133,-1.2133,-1.2183,-1.2184,-1.2185,-1.2175,0,0,-1.2189,-1.2189,0,0,0,0,0,0,0,0,-1.2004,-1.2008,-1.2057,-1.206,-1.2063,-1.2102,-1.208,-1.2115,-1.2131,-1.2106,-1.2133,-1.2134,-1.2155,-1.2159,-1.2166,-1.2178,-1.218,-1.2189,-1.2189,-1.219,-1.219,0,0,0,0,0,0,0,-1.2001,-1.2006,-1.2051,-1.2057,-1.2061,-1.2072,-1.2078,-1.2087,-1.2125,-1.2108,-1.2112,-1.2117,-1.2157,-1.2165,-1.2168,-1.2181,-1.2189,-1.219,-1.2191,-1.2191,-1.2187,-1.2186,0,0,0,0,0,0,-1.1994,-1.2004,-1.205,-1.2053,-1.2035,-1.2073,-1.2079,-1.2088,-1.2125,-1.2131,-1.2117,-1.2119,-1.2163,-1.2166,-1.217,-1.2161,-1.219,-1.2191,-1.2192,-1.2187,-1.2186,-1.2185,0,0,0,0,0,0,-1.1993,-1.1998,-1.2048,-1.2029,-1.2037,-1.2073,-1.2082,-1.2089,-1.2097,-1.2131,-1.2138,-1.2118,-1.2163,-1.2168,-1.2174,-1.2163,-1.2192,-1.2193,-1.2188,-1.2187,-1.2186,-1.2143,0,0,0,0,0,0,-1.1991,-1.1997,-1.1994,-1.2029,-1.2037,-1.2051,-1.2082,-1.2089,-1.2099,-1.2104,-1.2135,-1.214,-1.2165,-1.2172,-1.2175,-1.2165,-1.2194,-1.2189,-1.2188,-1.2186,-1.2145,-1.214,-1.2136,0,0,0,0,0,-1.1988,-1.198,-1.1994,-1.1999,-1.2035,-1.2051,-1.2055,-1.2084,-1.2098,-1.2096,-1.2118,-1.2139,-1.2164,-1.2172,-1.2176,-1.2167,-1.219,-1.2188,-1.2186,-1.2147,-1.2141,-1.2136,0,0,0,0,0,0,-1.1942,-1.1985,-1.2001,-1.2003,-1.2023,-1.2059,-1.2056,-1.2077,-1.2092,-1.2095,-1.2129,-1.2136,-1.2137,-1.2153,-1.2161,-1.2159,-1.218,-1.2179,-1.2149,-1.2143,-1.2139,-1.2134,-1.2195,0,0,0,0,0,-1.1932,-1.1942,-1.1979,-1.1977,-1.1986,-1.2019,-1.2027,-1.2048,-1.2069,-1.2077,-1.21,-1.2119,-1.2131,-1.2138,-1.2151,-1.2148,-1.2155,-1.2144,-1.2139,-1.2135,-1.2133,-1.2132,-1.2127,-1.2179,-1.2179,-1.2179,0,0,-1.1911,-1.1936,-1.194,-1.1968,-1.1986,-1.1995,-1.2026,-1.2034,-1.204,-1.2078,-1.2085,-1.2102,-1.2126,-1.2127,-1.2129,-1.214,-1.212,-1.2132,-1.2129,-1.2129,-1.2129,-1.2124,-1.212,-1.2178,-1.2178,-1.2178,0,0,-1.1877,-1.1898,-1.1898,-1.1916,-1.1943,-1.1965,-1.1965,-1.1998,-1.2011,-1.2019,-1.2047,-1.2055,-1.2075,-1.2091,-1.2101,-1.2075,-1.2095,-1.2078,-1.2052,-1.2051,-1.2047,-1.2043,-1.2033,-1.2029,-1.2076,-1.2076,-1.2076,0,-1.1848,-1.1863,-1.1896,-1.1902,-1.1914,-1.195,-1.195,-1.1965,-1.1994,-1.2001,-1.2014,-1.204,-1.2058,-1.2063,-1.2057,-1.2064,-1.2065,-1.2074,-1.2045,-1.2042,-1.2039,-1.2029,-1.2025,-1.2074,-1.2074,-1.2074,-1.2074,0,-1.1825,-1.1835,-1.1833,-1.1861,-1.1872,-1.1875,-1.1908,-1.1915,-1.1935,-1.1955,-1.1962,-1.1986,-1.2004,-1.2007,-1.2026,-1.2015,-1.2021,-1.2039,-1.206,-1.2031,-1.2023,-1.2019,-1.207,-1.2071,-1.2072,-1.2073,0,0,-1.1762,-1.181,-1.1808,-1.1821,-1.1854,-1.1862,-1.1867,-1.1886,-1.1891,-1.191,-1.1914,-1.1931,-1.1948,-1.196,-1.1981,-1.198,-1.1956,-1.1998,-1.1999,-1.1988,-1.1944,-1.1929,-1.1925,-1.197,-1.197,-1.197,-1.1942,0,-1.1734,-1.1745,-1.1775,-1.1777,-1.1786,-1.1821,-1.1825,-1.1845,-1.1865,-1.1875,-1.1896,-1.1907,-1.1929,-1.1936,-1.1937,-1.1959,-1.1947,-1.1961,-1.1973,-1.1973,-1.1965,-1.1921,-1.1905,-1.1878,-1.1939,-1.1938,-1.1938,0,-1.1701,-1.1719,-1.1722,-1.1755,-1.176,-1.1763,-1.1783,-1.1792,-1.1816,-1.183,-1.1843,-1.1867,-1.1873,-1.1894,-1.1903,-1.1912,-1.1918,-1.193,-1.193,-1.1931,-1.1953,-1.1919,-1.187,-1.1865,-1.1933,-1.1933,-1.1934,0,-1.1654,-1.1679,-1.1684,-1.1695,-1.1733,-1.1734,-1.175,-1.1774,-1.1783,-1.1801,-1.1807,-1.1824,-1.1833,-1.1846,-1.1873,-1.1886,-1.1878,-1.1901,-1.1889,-1.1888,-1.1885,-1.1884,-1.1834,-1.1891,-1.1891,-1.1891,-1.1891,0,-1.1618,-1.1618,-1.1663,-1.1666,-1.1667,-1.1702,-1.1702,-1.172,-1.1742,-1.1748,-1.178,-1.1785,-1.1822,-1.1831,-1.1853,-1.1856,-1.186,-1.1871,-1.1876,-1.1867,-1.1866,-1.1871,-1.1873,-1.189,-1.189,-1.189,-1.1891,0,-1.1565,-1.1595,-1.1603,-1.1639,-1.1648,-1.1647,-1.1677,-1.1681,-1.1703,-1.1711,-1.1714,-1.1748,-1.1761,-1.179,-1.181,-1.1825,-1.1822,-1.1833,-1.1814,-1.1817,-1.1803,-1.1804,-1.1754,-1.1749,-1.1809,-1.1809,-1.1808,0,-1.1539,-1.1541,-1.1577,-1.1584,-1.1599,-1.161,-1.162,-1.1654,-1.1663,-1.1689,-1.169,-1.1705,-1.1719,-1.1737,-1.1763,-1.1779,-1.1789,-1.1771,-1.1792,-1.1783,-1.1788,-1.1787,-1.1787,-1.1766,-1.1765,-1.1764,-1.1764,0,-1.149,-1.1506,-1.152,-1.1539,-1.155,-1.1567,-1.1585,-1.1589,-1.1626,-1.1635,-1.1649,-1.166,-1.1681,-1.1695,-1.1715,-1.173,-1.1753,-1.1757,-1.1755,-1.1745,-1.1734,-1.1739,-1.18,-1.1758,-1.1758,-1.1759,-1.1759,-1.1759,-1.145,-1.1452,-1.1478,-1.1493,-1.151,-1.1526,-1.1532,-1.1555,-1.1567,-1.1587,-1.1606,-1.1618,-1.1641,-1.167,-1.1684,-1.1693,-1.1705,-1.1701,-1.1701,-1.1699,-1.1695,-1.1734,-1.1697,-1.1697,-1.1697,-1.1697,-1.1698,0,-1.1401,-1.142,-1.1433,-1.1458,-1.1469,-1.1491,-1.1512,-1.152,-1.153,-1.155,-1.1564,-1.1579,-1.1594,-1.1621,-1.1638,-1.1639,-1.165,-1.1642,-1.1642,-1.1645,-1.1684,-1.1684,-1.1634,-1.1634,-1.1634,-1.1634,-1.1634,-1.1634,-1.1378,-1.1383,-1.1401,-1.1415,-1.1434,-1.1446,-1.1456,-1.1471,-1.1488,-1.1504,-1.1516,-1.1535,-1.1557,-1.1576,-1.159,-1.1597,-1.1601,-1.159,-1.1601,-1.1636,-1.1642,-1.1648,-1.1648,-1.1591,-1.1591,-1.1561,-1.1561,-1.1561]}]]